Regional Weather Roundup
Issued by NWS Upton, NY

Current Version | Previous Version | Text Only | Print | Product List | Glossary On
Versions: 1 2 3 4 5 6 7 8 9 10 11 12 13 14 15 16 17 18 19 20 21 22 23 24 25 26 27 28 29 30 31 32 33 34 35 36 37 38 39 40 41 42 43 44 45 46 47 48 49 50
000 ASUS41 KOKX 280108 RWROKX REGIONAL WEATHER ROUNDUP NATIONAL WEATHER SERVICE NEW YORK NY 900 PM EDT MON JUL 27 2015 NOTE: "FAIR" INDICATES FEW OR NO CLOUDS BELOW 12,000 FEET WITH NO SIGNIFICANT WEATHER AND/OR OBSTRUCTIONS TO VISIBILITY. NYZ071-072-176-178-NJZ106-104-280200- NEW YORK CITY METRO AREA CITY SKY/WX TMP DP RH WIND PRES REMARKS CENTRAL PARK CLOUDY 79 66 64 VRB3 30.03R LAGUARDIA APRT MOCLDY 79 66 64 S10G16 30.00R KENNEDY INTL MOCLDY 77 69 76 S12 30.01R NEWARK/LIBERTY MOCLDY 79 68 69 S8 30.00R BRNX BOT. GARD N/A 77 64 65 SE5 30.00F TETERBORO LGT RAIN 79 65 62 S10 29.98R $$ NYZ177-179-078>081-280200- LONG ISLAND NEW YORK CITY SKY/WX TMP DP RH WIND PRES REMARKS FARMINGDALE PTCLDY 76 68 76 SW8 30.01R ISLIP MOCLDY 75 69 81 SW7 30.00R SHIRLEY CLEAR 76 71 85 SW7 30.02R WESTHAMPTON CLEAR 76 73 91 SW7 30.04R MONTAUK POINT N/A 75 71 87 S6 30.04R $$ NYZ052-065-067-280200- HUDSON VALLEY CITY SKY/WX TMP DP RH WIND PRES REMARKS WHITE PLAINS PTCLDY 75 68 78 S6 30.00F NEWBURGH PTCLDY 73 70 88 CALM 30.01S MONTGOMERY PTCLDY 73 69 87 CALM 29.99S POUGHKEEPSIE PTCLDY 77 68 73 SE3 29.98R ALBANY MOCLDY 81 67 62 CALM 29.97R $$ NJZ001-105-106-008-010-013-015-019>022-104-280200- NEW JERSEY CITY SKY/WX TMP DP RH WIND PRES REMARKS NEWARK/LIBERTY MOCLDY 79 68 69 S8 30.00R TETERBORO LGT RAIN 79 65 62 S10 29.98R CALDWELL MOCLDY 80 69 69 SW3 29.99S MORRISTOWN NOT AVBL SOMERVILLE MOCLDY 77 70 79 S3 29.98R SUSSEX CLEAR 75 69 81 CALM 30.00R ANDOVER N/A 75 69 81 CALM 30.01R TRENTON PTCLDY 77 71 82 VRB3 30.00R MILLVILLE PTCLDY 77 72 84 VRB5 30.00R ATLANTIC CITY CLOUDY 77 68 73 S6 30.02R WRIGHTSTOWN CLOUDY 74 69 84 S6 29.98R TOMS RIVER PTCLDY 73 70 88 CALM 30.02R BELMAR CLEAR 73 64 73 CALM 30.01S $$ PAZ047>061-062-071-280200- EASTERN PENNSYLVANIA CITY SKY/WX TMP DP RH WIND PRES REMARKS PHILADELPHIA CLOUDY 80 70 71 S7 30.01R ALLENTOWN PTCLDY 80 69 69 S7 29.99R SCRANTON CLEAR 72 65 78 CALM 30.02R $$ CTZ002-004>006-009-010-012-RIZ004-006-007-MAZ004-011-015-280200- SOUTHERN NEW ENGLAND IN CT CITY SKY/WX TMP DP RH WIND PRES REMARKS BRADLEY INTL MOCLDY 79 65 62 SW12 29.98S HARTFORD PTCLDY 78 68 71 S8 29.99S DANBURY PTCLDY 75 65 70 CALM 30.02R WTRBRY/OXFORD PTCLDY 73 64 73 S6 30.05R BRIDGEPORT CLEAR 77 71 82 S7 30.00R MERIDEN PTCLDY 76 67 73 S3 30.01R NEW HAVEN PTCLDY 75 69 81 S3 30.01R CHESTER FAIR 73 70 88 SW6 30.03S GROTON MOCLDY 71 69 93 S7 30.01S WILLIMANTIC MOCLDY 76 68 76 S3 30.01R IN RI CITY SKY/WX TMP DP RH WIND PRES REMARKS PROVIDENCE MOCLDY 73 68 84 S8 30.01S BLOCK ISLAND PTCLDY 72 70 94 S8 30.04R WESTERLY MOCLDY 73 69 87 S6 30.02S IN MA CITY SKY/WX TMP DP RH WIND PRES REMARKS BOSTON PTCLDY 74 67 78 S8 29.99S WORCESTER PTCLDY 71 65 81 SW9 30.03S WESTFIELD MOCLDY 70 68 93 CALM 30.00R PROVINCETOWN MOCLDY 72 64 78 SW9 30.03R NANTUCKET PTCLDY 69 67 93 S8 30.04R $$ ANZ330-335-338-340-345-350-353-355-280200- COASTAL MARINE OBSERVATIONS STATION/POSITION TIME SKY/WX TEMP WIND PRES VSBY WAVE AIR SEA DIR/SP/G HT/PER (UTC) (F) (DEG/KT/KT) (MB) (MI) (FT/S) NY HARB ENTRANCE 0050 76 75 200/ 10/ 10 1015.7 2/12 4S FIRE IS NOT AVBL 20S FIRE ISLAND 0050 74 72 220/ 6/ 8 1016.2 2/11 GREAT SOUTH BAY 0015 76 80 220/ 8/ 14 N/A 23SW MTP 0050 75 74 200/ 6/ 6 1016.3 2/11 HUDSON CANYON NOT AVBL KINGS POINT 0000 78 71 210/ 13/ 16 1015.0 CENTRAL LI SOUND NOT AVBL EASTERN LI SOUND 0000 71 69 140/ 4/ 4 N/A ROBBINS REEF 0000 75 160/ 13/ 14 1014.5 $$ >>>>>>>>>>>>>>>>>>>>>>>>>>>> KEY <<<<<<<<<<<<<<<<<<<<<<<<<<< > < > SKY/WX - SKY CONDITION/PRESENT WEATHER < > TMP - TEMPERATURE IN FAHRENHEIT < > DP - DEWPOINT IN FAHRENHEIT < > RH - RELATIVE HUMIDITY IN PERCENT < > WIND - DIRECTION AND SPEED IN MPH < > PRES - MEAN SEA LEVEL PRESSURE IN INCHES OF HG < > WCI - WIND CHILL INDEX < > VSB - VISIBILITY IN MILES < > HX - HEAT INDEX < > TC - TEMPERATURE IN CELSIUS < > VRB - VARIABLE WIND DIRECTION < > < >>>>>>>>>>>>>>>>>>>>>>>>>>>> KEY <<<<<<<<<<<<<<<<<<<<<<<<<<<

USA.gov is the U.S. government's official web portal to all federal, state and local government web resources and services.